Regional Weather Roundup
Issued by NWS Kansas City/Pleasant Hill, MO

Home | Current Version | Previous Version | Graphics & Text | Print | Product List | Glossary Off
Versions: 1 2 3 4 5 6 7 8 9 10 11 12 13 14 15 16 17 18 19 20 21 22 23 24 25 26 27 28 29 30 31 32 33 34 35 36 37 38 39 40 41 42 43 44 45 46 47 48 49 50

000
ASUS43 KEAX 040504
RWREAX

WEATHER ROUNDUP FOR EASTERN KANSAS AND NORTHWEST MISSOURI
NATIONAL WEATHER SERVICE KANSAS CITY/PLEASANT HILL MO
1200 AM CDT SAT JUL 04 2015

KSZ040-057-103>105-MOZ028-029-037-043-040600-
...KANSAS CITY METROPOLITAN AREA...

CITY           SKY/WX    TMP DP  RH WIND       PRES   REMARKS
K.C. INTL      CLEAR     69  59  70 E6        30.00R
K.C. DOWNTOWN  CLEAR     70  60  70 NE3       29.99R
LEES SUMMIT    CLEAR     67  60  78 CALM      30.00R
OLATHE - IXD   CLEAR     67  59  75 NE3       30.00R
OLATHE - OJC   CLEAR     65  59  81 NE6       29.99R
LAWRENCE       CLEAR     63  60  90 CALM      30.00R

$$

MOZ001>008-011>017-020>025-030>033-038>040-044>046-053-054-040600-
...NORTHERN AND CENTRAL MISSOURI...

CITY           SKY/WX    TMP DP  RH WIND       PRES   REMARKS
ST. JOSEPH     CLEAR     65  61  87 CALM      30.00R
MOSBY          CLEAR     63  63 100 CALM      30.00R
HARRISONVILLE  CLEAR     66  63  88 NE3       30.01S
WHITEMAN AFB   CLEAR     66  61  85 CALM      29.98R
CLINTON        CLEAR     66  64  94 CALM      29.99R
SEDALIA        CLEAR     67  63  87 CALM      30.00R
WARSAW         FAIR      63  63 100 CALM      29.98S
CHILLICOTHE      N/A     64  62  93 CALM      30.00R
KIRKSVILLE     CLEAR     61  59  93 CALM      30.00R FOG

$$

MOZ041-047>049-056>058-063>065-088>090-097-040600-
...EASTERN AND SOUTHERN MISSOURI...

CITY           SKY/WX    TMP DP  RH WIND       PRES   REMARKS
ST. LOUIS INTL CLEAR     74  65  73 NE5       29.96R
SPIRIT OF STL  CLEAR     67  66  97 CALM      29.95R FOG
COLUMBIA       CLEAR     66  61  84 NE6       29.98R
JEFFERSON CITY CLEAR     67  63  87 CALM      29.97R
MEXICO         CLEAR     68  66  94 CALM      29.98R
ROLLA          CLEAR     65  63  93 N3        29.97R
LEBANON        CLEAR     64  61  88 CALM      29.98S
OSAGE BEACH    CLEAR     66  63  88 NE3       29.97S
SPRINGFIELD    CLEAR     71  66  84 NE5       29.97R
BRANSON        CLEAR     68  68 100 CALM      29.97S
JOPLIN         CLEAR     70  68  93 NE5       29.97R
WEST PLAINS    CLEAR     69  66  90 N5        29.96F
MALDEN         MOCLDY    73  70  88 NE3       29.92S

$$

IAZ060-094-KSZ022-034>040-054-083-096-NEZ052-066-093-040600-
...KANSAS...SOUTHEAST NEBRASKA AND IOWA...

CITY           SKY/WX    TMP DP  RH WIND       PRES   REMARKS
TOPEKA         PTCLDY    66  62  87 CALM      30.00R FOG
MANHATTAN      CLEAR     64  61  90 CALM      30.00R
EMPORIA        CLEAR     68  61  78 NE5       30.00R
CHANUTE        PTCLDY    71  66  84 NE6       29.99R
WICHITA        CLEAR     72  63  73 E6        30.00R
OMAHA          PTCLDY    65  59  81 CALM      29.99S
LINCOLN        CLEAR     69  63  81 CALM      30.01R HAZE
FALLS CITY     CLEAR     67  59  75 CALM      29.99R
LAMONI         CLEAR     68  56  65 CALM      29.99S
DES MOINES     PTCLDY    68  58  70 S3        29.98R

$$



USA.gov is the U.S. government's official web portal to all federal, state and local government web resources and services.